Location: Deer Path Park
(40.5570°N, 74.8450°W)
Time: 13:16:08
(UTC-05:00)

Iridium 49 - Visible Passes

Search period start: 04 December 2016 00:00
Search period end: 14 December 2016 00:00
Orbit: 776 x 779 km, 86.4° (Epoch: 03 December)

Date Brightness Start Highest point End Pass type
(mag) Time Alt. Az. Time Alt. Az. Time Alt. Az.
04 Dec 7.2 04:39:21 10° NNE 04:44:19 41° E 04:49:13 10° SSE visible
04 Dec 7.2 06:20:47 10° NNW 06:24:42 22° W 06:28:36 10° SW visible
04 Dec 6.0 17:35:24 10° S 17:40:37 88° E 17:45:52 10° N visible
04 Dec 9.2 19:21:38 10° WNW 19:22:04 10° WNW 19:22:31 10° WNW visible
05 Dec 8.2 04:06:28 10° NNE 04:10:34 23° ENE 04:14:39 10° SE visible
05 Dec 6.4 05:46:34 10° NNW 05:51:25 39° W 05:56:13 10° SSW visible
05 Dec 6.3 17:02:11 10° SSE 17:07:10 48° E 17:12:09 10° NNE visible
05 Dec 8.6 18:44:28 10° WSW 18:48:09 19° WNW 18:51:51 10° NNW visible
06 Dec 8.9 03:34:29 10° NE 03:36:41 13° ENE 03:38:53 10° E visible
06 Dec 5.9 05:12:47 10° N 05:18:00 74° W 05:23:11 10° S visible
06 Dec 7.7 18:09:39 10° SW 18:14:22 34° W 18:19:08 10° NNW visible
07 Dec 6.5 04:39:29 11° N 04:44:28 60° E 04:49:37 10° SSE visible
07 Dec 7.5 06:21:42 10° NW 06:24:35 15° WNW 06:27:30 10° WSW visible
07 Dec 6.5 17:35:34 10° SSW 17:40:44 64° W 17:45:56 10° N visible
08 Dec 7.6 04:07:49 19° NNE 04:10:49 33° E 04:15:28 10° SE visible
08 Dec 6.8 05:48:25 17° NW 05:51:23 28° W 05:55:44 10° SW visible
08 Dec 6.0 17:02:02 10° S 17:07:13 70° E 17:12:25 10° N visible
08 Dec 8.9 18:46:01 10° WSW 18:48:28 13° WNW 18:50:56 10° NW visible
09 Dec 8.5 03:35:59 17° ENE 03:37:02 18° ENE 03:40:34 10° ESE visible
09 Dec 6.1 05:16:34 38° NW 05:18:03 50° W 05:23:04 10° SSW visible
09 Dec 8.3 18:10:26 10° SW 18:14:37 24° WNW 18:18:49 10° NNW visible
10 Dec 5.9 04:44:34 87° ENE 04:44:35 87° E 04:49:49 10° S visible
10 Dec 7.3 17:35:57 10° SSW 17:40:54 44° W 17:45:52 10° N visible
11 Dec 7.3 04:12:30 37° SE 04:12:30 37° SE 04:16:01 10° SSE visible
11 Dec 7.6 05:53:04 16° WSW 05:53:04 16° WSW 05:54:56 10° SW visible
11 Dec 6.2 17:02:05 10° S 17:07:18 81° W 17:12:33 10° N visible
12 Dec 8.5 03:40:19 16° SE 03:40:19 16° SE 03:41:38 10° SE visible
12 Dec 7.5 05:20:53 20° SW 05:20:53 20° SW 05:22:44 10° SSW visible
12 Dec 8.7 18:11:34 10° WSW 18:14:55 17° WNW 18:18:15 10° NW visible
13 Dec 7.9 04:48:38 17° SSW 04:48:38 17° SSW 04:49:49 10° S visible
13 Dec 8.0 17:36:33 10° SW 17:41:06 30° W 17:45:42 10° NNW visible
